Wetbulb
55.92 54.57 52.34 51.69 52.04 52.15 52.14 50.49 48.74 48.19 46.86 47.15 47.82 49.58 51.06 52.17 53.41 54.39 54.93 59.86 60.03 59.68 59.24 58.82 58.36 57.31 56.21 55.06 54.05 53.49 53.13 52.75 52.35 52.27 52.25 52.16 51.80 51.99 51.61 51.36 51.06 50.95 51.15
55.26 53.64 51.57 51.16 52.00 52.32 52.03 50.55 49.06 48.31 46.64 46.48 45.98 46.52 47.76 50.73 52.43 53.34 53.96 56.25 59.39 59.98 59.24 58.46 58.20 57.31 56.28 54.88 53.67 52.66 52.21 51.54 51.07 51.01 51.33 51.37 51.25 51.28 50.92 50.82 50.43 50.27 50.31
54.67 52.94 51.98 51.96 51.98 52.61 52.24 50.99 49.71 48.32 46.72 46.62 45.62 46.31 46.27 47.05 48.94 51.68 52.88 53.38 56.42 58.88 59.37 59.48 58.04 57.63 57.24 56.41 54.23 52.39 51.43 51.18 50.08 49.87 50.41 50.71 50.70 50.56 50.24 50.11 50.02 49.80 49.73
55.41 53.37 52.52 53.19 53.37 53.64 52.45 51.05 50.33 49.05 47.21 46.25 45.12 44.93 45.80 46.88 47.15 48.11 50.41 51.79 53.03 55.41 57.93 59.52 59.66 58.52 57.58 56.01 55.17 52.87 51.76 50.57 49.70 49.35 49.87 49.97 50.03 49.88 49.60 49.15 49.09 49.09 49.14
56.71 54.98 54.51 54.14 54.66 54.02 52.89 52.31 50.98 50.33 48.11 46.84 45.73 44.83 44.55 45.30 47.03 48.66 47.87 49.06 50.87 53.02 52.67 57.04 58.53 57.84 57.78 55.73 54.90 53.29 52.45 50.35 49.84 49.33 49.61 48.87 48.86 48.12 47.93 47.95 48.25 48.27 48.64
57.65 56.66 56.19 55.84 55.53 54.57 53.03 52.35 51.57 50.79 49.51 48.58 49.03 46.78 44.37 44.37 44.06 45.10 47.41 48.69 49.61 51.03 51.12 51.88 53.30 52.82 55.92 56.10 54.43 53.35 53.02 51.81 50.69 50.20 49.85 48.77 47.69 46.65 46.48 46.62 46.99 47.30 47.65
58.78 56.93 56.85 56.25 55.32 54.51 53.62 53.07 51.37 50.45 50.26 49.90 46.89 45.63 45.33 45.41 44.52 43.50 43.57 46.25 48.11 49.47 49.41 49.52 49.11 48.23 49.89 55.82 54.19 53.47 53.64 53.34 52.40 51.61 50.74 49.68 47.84 46.35 45.49 45.17 45.55 45.95 46.60
57.63 57.47 56.63 56.63 55.32 54.35 53.79 52.52 51.54 50.24 50.39 50.35 48.34 45.79 42.85 44.87 46.41 45.30 44.69 43.42 45.90 46.62 47.93 48.58 47.73 46.89 45.06 46.49 48.77 53.66 54.01 53.79 53.61 52.83 51.61 50.26 48.82 47.14 45.98 45.22 45.00 45.22 45.58
57.54 58.00 57.90 57.64 56.53 55.18 54.10 52.96 52.43 51.91 50.83 51.70 50.08 49.08 45.34 43.95 45.63 47.52 46.56 45.74 45.16 44.62 45.09 45.92 46.69 46.98 44.73 42.76 47.39 50.50 52.82 53.07 53.50 53.18 52.53 50.99 49.49 48.12 47.16 45.81 45.20 45.05 45.03
57.31 57.97 57.82 57.95 57.79 57.36 56.05 54.85 54.53 52.17 51.77 50.31 50.75 50.16 49.18 47.80 44.54 44.02 47.05 47.26 47.50 46.08 44.50 43.15 44.52 45.42 45.07 43.81 45.14 47.28 48.53 50.08 51.78 52.45 52.43 51.92 50.30 49.08 48.06 46.90 45.99 45.23 45.09
56.45 58.02 58.32 57.27 57.35 57.53 57.17 55.36 52.87 52.61 52.77 50.64 51.26 48.15 47.34 46.74 47.07 45.80 44.19 45.99 46.73 47.40 47.05 45.58 45.39 44.98 44.60 43.68 42.80 43.33 47.77 47.92 49.37 51.68 51.92 51.88 51.31 49.92 48.82 47.65 46.57 46.04 45.55
55.54 57.19 58.10 58.18 57.75 57.15 56.17 55.90 54.98 52.66 51.95 50.10 50.60 48.04 47.70 46.67 46.13 45.59 44.31 44.41 44.32 44.64 44.94 45.22 45.07 45.18 45.10 44.09 44.65 46.22 46.20 46.66 47.74 49.84 51.39 51.16 50.93 50.36 49.69 48.64 47.44 46.68 45.93
53.99 56.35 58.16 58.14 57.17 57.27 56.15 54.13 52.97 52.94 51.10 50.70 50.24 49.47 49.04 48.59 48.09 47.03 45.47 43.25 41.49 42.01 41.99 43.13 43.53 42.20 43.78 43.13 42.55 45.53 46.51 45.69 46.51 48.06 49.45 50.39 50.28 49.68 49.23 48.71 47.86 47.35 46.38
55.16 56.75 57.61 58.53 57.41 56.17 55.83 54.22 54.02 52.36 51.56 51.29 48.69 48.78 49.03 48.55 47.14 46.04 44.34 40.90 40.66 40.53 39.51 40.79 39.21 40.27 41.01 39.82 41.06 43.85 42.18 44.25 45.14 45.62 47.07 48.28 48.77 48.86 48.78 47.85 47.08 46.59 45.58
55.55 55.58 56.43 56.77 56.83 56.59 56.57 55.13 53.92 51.27 50.45 49.31 49.20 49.25 45.64 45.94 46.04 46.08 45.10 44.00 42.15 37.47 36.96 39.81 36.77 38.25 38.37 38.26 39.15 37.97 39.17 42.94 44.51 44.22 44.34 45.67 46.75 47.65 47.56 47.29 46.40 45.24 44.36
57.43 57.37 56.87 56.63 56.05 56.09 53.40 52.66 51.28 49.22 48.82 46.94 46.51 45.70 44.94 45.17 45.37 45.14 44.54 43.72 43.00 41.02 38.00 39.56 36.92 36.91 37.59 38.96 39.30 38.64 37.79 43.28 43.36 43.42 43.10 43.29 44.37 45.63 45.80 45.81 45.34 43.95 43.33
57.78 57.67 57.68 56.65 55.79 53.82 53.20 51.17 48.88 47.25 46.45 45.33 45.34 45.19 44.29 44.46 43.89 43.49 43.57 43.44 42.55 41.30 38.75 39.02 37.31 36.82 34.86 35.23 36.83 36.54 37.23 36.88 38.98 42.13 42.39 42.51 42.35 42.63 43.24 43.66 43.38 43.33 42.77
58.39 57.86 57.26 55.63 52.62 51.51 50.43 49.31 46.47 46.47 45.38 44.52 44.05 43.87 43.50 44.10 42.97 43.07 43.24 42.77 41.96 41.72 39.17 35.16 35.92 34.05 33.70 34.80 34.70 34.25 37.82 39.13 36.49 39.66 40.70 41.65 42.17 41.54 41.28 41.52 41.52 41.74 40.71
56.93 55.69 54.95 52.60 50.97 50.23 48.24 46.85 47.03 45.45 44.85 44.28 43.64 43.47 43.47 42.64 42.46 43.31 41.69 40.07 39.19 39.35 34.94 32.27 31.54 33.37 32.85 33.25 33.33 34.17 34.39 35.00 36.74 40.47 40.31 40.15 40.76 41.55 41.37 41.08 40.91 40.67 40.38
53.88 51.89 52.18 51.31 49.33 47.48 46.98 45.78 45.53 44.35 43.77 43.62 43.34 43.10 42.99 43.33 41.73 39.80 38.57 34.07 31.29 28.83 28.64 27.44 27.20 28.23 29.29 30.69 30.15 29.26 30.33 31.48 32.10 36.11 37.97 37.76 38.81 39.89 41.09 40.91 40.38 40.42 39.99
50.79 50.34 48.57 47.19 45.99 45.43 45.06 44.47 44.09 43.16 42.57 42.20 42.64 43.01 40.05 38.41 36.98 35.98 30.97 27.99 26.91 25.86 25.33 24.32 23.81 24.68 23.80 24.74 24.49 26.91 28.68 29.30 30.36 31.77 33.05 33.88 34.76 35.26 36.71 39.65 40.00 39.77 39.24
47.85 46.96 46.42 45.28 44.63 44.43 39.80 40.50 42.01 42.08 42.32 42.27 39.32 35.45 34.53 34.43 34.08 33.74 32.68 32.47 29.84 25.01 22.80 22.32 22.17 21.60 21.58 23.29 25.00 25.51 25.63 24.73 22.94 28.37 28.12 29.39 31.63 33.37 32.99 32.63 36.58 37.92 37.54
46.02 45.14 44.99 43.62 42.58 41.73 39.03 39.77 39.80 42.07 39.17 35.87 33.36 32.58 31.03 30.86 29.96 28.20 29.20 28.38 27.67 28.61 26.72 23.81 21.93 22.44 23.24 24.39 25.30 25.00 25.14 25.86 25.23 27.60 27.44 25.83 28.91 30.01 33.23 33.97 36.31 36.25 36.40
44.02 43.12 42.56 43.08 42.16 41.16 38.52 37.66 35.59 34.09 31.85 30.67 29.87 27.65 26.61 26.98 28.11 27.25 25.93 25.00 25.63 26.00 26.60 27.08 24.98 25.21 25.85 28.48 28.87 28.61 28.62 28.81 28.93 29.27 30.04 25.49 28.71 28.70 30.76 32.42 35.20 37.10 35.75
43.75 42.61 42.50 41.15 39.69 38.82 35.98 34.04 32.39 30.89 27.91 26.38 27.15 26.85 26.50 25.63 28.35 28.85 26.70 25.25 25.17 26.30 28.49 28.86 29.81 30.28 30.63 31.17 30.87 29.02 27.75 27.00 24.32 25.58 26.99 27.24 28.01 29.46 27.63 29.26 28.54 34.39 35.60
41.43 39.41 36.01 36.35 35.83 34.52 34.03 33.00 30.04 26.27 24.10 24.42 25.64 25.81 27.42 26.24 27.34 28.50 25.97 24.83 24.06 23.37 23.20 24.21 23.68 24.92 27.01 27.72 29.09 27.98 28.50 26.48 25.83 24.78 27.02 26.20 28.10 26.47 25.72 27.98 27.05 27.78 29.83
MSLP
1018.91 1019.45 1019.81 1020.02 1019.91 1020.64 1020.41 1021.42 1021.89 1022.60 1022.66 1023.08 1023.61 1023.88 1024.14 1024.34 1024.67 1024.76 1024.95 1025.00 1025.24 1025.36 1025.52 1025.72 1026.03 1026.35 1026.73 1027.03 1027.18 1027.49 1027.61 1027.53 1027.80 1027.98 1028.09 1028.08 1028.21 1028.14 1028.15 1028.19 1028.28 1028.30 1028.22
1019.15 1019.43 1020.05 1019.99 1020.49 1020.48 1020.78 1021.52 1022.06 1022.41 1023.03 1023.49 1023.76 1023.91 1024.32 1024.61 1024.72 1024.86 1025.01 1025.09 1025.16 1025.42 1025.58 1025.85 1026.03 1026.51 1026.65 1027.00 1027.10 1027.39 1027.56 1027.69 1027.84 1028.00 1028.03 1028.11 1028.08 1028.27 1028.39 1028.32 1028.30 1028.31 1028.37
1018.84 1019.60 1019.94 1020.30 1020.60 1020.40 1021.12 1021.36 1022.17 1022.81 1023.32 1023.59 1023.82 1024.04 1024.22 1024.50 1024.57 1024.83 1025.07 1025.31 1025.22 1025.24 1025.38 1025.63 1026.07 1026.22 1026.43 1026.71 1027.17 1027.28 1027.42 1027.62 1027.87 1027.99 1028.06 1028.15 1028.14 1028.12 1028.31 1028.44 1028.44 1028.45 1028.40
1018.91 1019.35 1019.90 1020.49 1020.11 1020.53 1021.20 1021.79 1022.48 1023.06 1023.40 1023.68 1023.83 1024.05 1024.23 1024.30 1024.34 1024.59 1024.83 1024.94 1024.96 1025.00 1025.15 1025.33 1025.79 1026.00 1026.08 1026.42 1026.76 1027.18 1027.36 1027.51 1027.77 1027.87 1028.02 1028.16 1028.12 1028.25 1028.30 1028.46 1028.60 1028.51 1028.38
1018.77 1019.31 1019.93 1020.23 1020.01 1020.82 1021.55 1021.75 1022.39 1022.70 1023.41 1023.68 1023.95 1024.16 1024.22 1024.10 1024.15 1024.30 1024.47 1024.61 1024.76 1024.90 1025.19 1025.26 1025.53 1025.74 1025.97 1026.25 1026.56 1026.87 1027.12 1027.33 1027.58 1027.71 1027.86 1028.04 1028.15 1028.41 1028.42 1028.44 1028.47 1028.45 1028.33
1019.01 1019.39 1019.91 1020.06 1020.46 1020.99 1021.38 1021.88 1022.30 1022.78 1023.27 1023.62 1024.11 1024.36 1024.53 1024.73 1024.56 1024.32 1024.30 1024.48 1024.84 1024.92 1025.28 1025.34 1025.43 1025.59 1025.80 1026.07 1026.26 1026.51 1026.72 1026.86 1027.03 1027.37 1027.73 1028.04 1028.15 1028.40 1028.48 1028.46 1028.48 1028.52 1028.41
1019.08 1019.40 1019.84 1020.17 1020.78 1020.91 1021.24 1021.61 1022.52 1023.00 1023.47 1023.71 1024.40 1024.74 1024.59 1024.39 1024.62 1024.50 1024.51 1024.69 1024.77 1024.94 1024.98 1025.24 1025.41 1025.43 1025.54 1025.76 1025.95 1026.11 1026.32 1026.41 1026.62 1027.00 1027.32 1027.71 1028.00 1028.25 1028.31 1028.42 1028.43 1028.41 1028.29
1018.77 1019.16 1019.81 1020.43 1020.39 1020.88 1021.07 1021.56 1022.15 1022.84 1023.15 1023.48 1023.97 1024.32 1024.62 1024.61 1024.37 1024.25 1024.42 1024.30 1024.31 1024.69 1024.94 1025.01 1025.16 1025.23 1025.40 1025.57 1025.54 1025.64 1025.79 1025.97 1026.21 1026.50 1026.83 1027.20 1027.66 1027.88 1027.98 1028.11 1028.16 1028.16 1028.10
1018.70 1019.30 1019.66 1019.77 1020.24 1020.57 1020.97 1021.38 1021.88 1022.27 1022.76 1023.26 1023.05 1023.43 1024.33 1024.05 1023.97 1023.82 1023.95 1024.02 1023.88 1024.24 1024.53 1024.76 1024.73 1024.74 1024.94 1025.20 1025.29 1025.38 1025.44 1025.61 1025.77 1025.89 1026.10 1026.72 1027.13 1027.34 1027.50 1027.58 1027.65 1027.67 1027.64
1018.64 1019.02 1019.26 1019.41 1019.48 1019.71 1020.33 1020.72 1021.23 1021.79 1022.26 1022.96 1023.31 1023.33 1023.38 1023.51 1024.02 1024.25 1023.77 1023.75 1023.85 1024.02 1024.08 1024.51 1024.52 1024.47 1024.52 1024.74 1025.03 1025.07 1025.00 1025.13 1025.31 1025.38 1025.60 1026.08 1026.47 1026.73 1026.92 1026.96 1027.03 1027.16 1027.21
1018.48 1018.52 1018.71 1018.84 1018.86 1019.15 1019.77 1020.20 1020.78 1021.28 1021.67 1022.19 1022.49 1023.24 1023.55 1023.67 1023.92 1023.97 1023.96 1023.75 1023.68 1023.38 1023.51 1023.73 1023.92 1024.02 1024.21 1024.55 1024.82 1024.97 1024.98 1024.90 1024.90 1025.01 1025.12 1025.41 1025.74 1026.05 1026.21 1026.30 1026.36 1026.54 1026.57
1017.93 1017.96 1018.03 1018.24 1018.42 1018.96 1019.33 1019.67 1020.03 1020.53 1020.92 1021.33 1021.68 1022.21 1022.51 1023.11 1023.44 1023.84 1023.72 1023.59 1023.66 1023.52 1023.40 1023.06 1023.53 1023.80 1023.89 1024.15 1024.25 1024.23 1024.30 1024.46 1024.58 1024.53 1024.50 1024.66 1024.95 1025.22 1025.39 1025.58 1025.62 1025.72 1025.81
1017.62 1017.57 1017.60 1017.87 1018.26 1018.38 1018.80 1019.27 1019.72 1019.96 1020.35 1020.78 1021.10 1021.59 1021.86 1022.08 1022.61 1022.97 1023.38 1023.64 1023.78 1023.84 1023.66 1023.40 1023.26 1023.59 1023.77 1024.05 1024.23 1024.14 1023.92 1023.96 1023.95 1023.94 1023.97 1024.06 1024.22 1024.44 1024.57 1024.70 1024.76 1024.88 1025.01
1016.98 1017.05 1017.38 1017.62 1017.95 1018.06 1018.15 1018.70 1019.34 1019.64 1020.02 1020.43 1020.79 1021.20 1021.62 1022.06 1022.30 1022.68 1023.03 1023.62 1024.02 1024.11 1024.05 1023.73 1023.72 1023.72 1023.83 1023.81 1023.67 1023.63 1023.80 1023.59 1023.66 1023.76 1023.79 1023.76 1023.74 1023.72 1023.71 1023.71 1023.81 1024.04 1024.24
1016.91 1017.15 1017.06 1017.23 1017.34 1017.71 1017.82 1017.99 1018.97 1019.26 1019.56 1019.97 1020.53 1020.99 1021.39 1021.83 1022.09 1022.59 1022.81 1023.12 1023.60 1024.06 1024.16 1024.03 1024.14 1023.41 1023.57 1023.54 1023.33 1023.29 1023.25 1023.03 1023.10 1023.27 1023.33 1023.36 1023.26 1023.12 1023.04 1022.98 1023.09 1023.41 1023.72
1016.53 1016.59 1016.77 1016.99 1017.34 1017.48 1017.59 1018.15 1018.80 1019.19 1019.45 1019.96 1020.41 1020.90 1021.37 1021.77 1022.27 1022.66 1023.00 1023.25 1023.58 1023.92 1024.10 1023.96 1023.89 1023.60 1023.29 1023.03 1022.85 1022.83 1022.68 1022.54 1022.55 1022.54 1022.54 1022.46 1022.40 1022.19 1022.15 1022.48 1022.81 1023.14 1023.25
1015.71 1015.78 1015.45 1016.09 1016.70 1017.07 1017.35 1017.73 1018.22 1019.13 1019.49 1020.15 1020.49 1020.79 1021.22 1021.61 1022.27 1022.80 1023.11 1023.24 1023.53 1023.82 1024.05 1023.84 1023.58 1023.30 1023.38 1023.15 1022.78 1022.41 1022.23 1022.09 1021.86 1021.74 1021.70 1021.62 1021.55 1021.56 1021.71 1021.76 1021.97 1022.01 1022.21
1014.41 1014.63 1015.01 1015.73 1016.40 1016.64 1017.08 1017.46 1017.91 1018.71 1019.23 1019.71 1020.29 1020.75 1021.40 1021.82 1022.34 1022.73 1022.95 1023.10 1023.28 1023.54 1023.95 1023.97 1023.82 1023.66 1023.67 1023.12 1022.92 1022.86 1022.32 1022.17 1021.90 1021.41 1021.10 1020.64 1020.47 1020.56 1020.52 1020.32 1020.45 1020.51 1020.78
1013.63 1013.92 1014.48 1015.62 1015.94 1016.47 1016.80 1017.19 1017.55 1018.31 1018.83 1019.47 1019.98 1020.78 1021.17 1021.81 1022.21 1022.55 1022.68 1023.21 1023.25 1023.46 1023.95 1024.25 1024.31 1023.88 1023.53 1023.22 1022.90 1022.42 1021.89 1021.65 1021.57 1021.09 1020.47 1020.14 1019.81 1019.47 1019.39 1019.34 1019.26 1019.27 1019.82
1013.54 1014.26 1014.88 1015.12 1015.51 1016.10 1016.51 1016.79 1017.47 1018.20 1018.80 1019.33 1019.93 1020.51 1021.10 1021.57 1021.92 1022.46 1022.70 1023.24 1023.55 1023.93 1024.28 1024.50 1024.39 1024.25 1023.93 1023.41 1023.30 1022.96 1022.17 1021.84 1021.36 1021.02 1020.26 1019.87 1019.30 1018.73 1018.55 1018.53 1018.61 1018.83 1019.09
1013.01 1013.71 1014.33 1014.93 1015.26 1015.76 1016.13 1016.73 1017.44 1017.99 1018.72 1019.58 1020.24 1020.70 1021.36 1021.64 1022.07 1022.27 1022.80 1023.54 1023.79 1024.19 1024.36 1024.56 1024.75 1024.61 1024.34 1024.01 1023.95 1023.37 1022.72 1021.74 1021.23 1021.06 1020.08 1019.50 1018.98 1018.42 1017.82 1017.30 1017.50 1017.91 1018.28
1012.59 1013.45 1014.11 1014.48 1015.10 1015.73 1016.19 1016.85 1017.36 1018.16 1018.89 1019.80 1020.40 1021.29 1021.76 1022.16 1022.60 1022.79 1023.29 1023.58 1023.79 1024.08 1024.47 1024.71 1024.80 1024.94 1024.66 1024.16 1023.61 1023.50 1022.93 1022.11 1021.02 1020.73 1020.16 1019.03 1019.07 1018.26 1017.90 1017.55 1017.08 1017.21 1017.49
1012.51 1013.20 1014.18 1014.70 1015.35 1016.01 1016.59 1017.17 1017.72 1018.43 1019.28 1020.12 1020.87 1021.51 1022.09 1022.72 1023.14 1023.44 1023.66 1023.82 1024.05 1024.29 1024.42 1024.52 1024.63 1024.49 1024.22 1023.78 1023.28 1022.80 1022.53 1021.98 1021.24 1020.72 1020.42 1018.74 1018.59 1017.78 1017.36 1016.92 1016.73 1016.90 1017.09
1012.49 1013.41 1014.14 1014.79 1015.48 1016.29 1016.98 1017.62 1018.24 1019.15 1020.12 1020.89 1021.49 1021.86 1022.38 1023.08 1023.41 1023.60 1023.77 1024.05 1024.31 1024.16 1024.07 1024.12 1024.13 1023.83 1023.60 1023.03 1022.63 1022.08 1021.52 1020.90 1020.07 1019.64 1019.46 1018.50 1017.59 1016.96 1016.52 1016.33 1016.33 1016.24 1016.53
1012.99 1013.73 1014.53 1015.32 1016.01 1017.09 1017.65 1018.27 1018.98 1019.99 1020.92 1021.64 1022.05 1022.51 1023.03 1023.40 1023.47 1023.59 1023.86 1024.02 1024.01 1023.89 1023.82 1023.70 1023.27 1022.87 1022.48 1022.16 1021.86 1021.41 1020.92 1020.48 1019.36 1018.57 1018.45 1017.87 1016.87 1016.57 1016.31 1015.97 1015.94 1015.78 1015.88
1013.23 1014.31 1015.26 1016.03 1016.64 1017.60 1018.34 1018.98 1019.51 1020.31 1021.30 1022.01 1022.61 1023.07 1023.25 1023.59 1023.81 1023.84 1023.82 1023.92 1024.14 1024.15 1023.99 1023.67 1023.42 1022.88 1022.31 1021.89 1021.59 1021.38 1020.57 1019.90 1019.41 1018.24 1017.31 1017.41 1016.87 1016.97 1016.29 1015.71 1015.57 1015.68 1015.73
Wind_Speed
6 4 4 4 6 3 6 6 6 5 6 7 6 7 6 6 5 3 2 10 11 12 13 12 12 12 11 9 9 7 7 8 8 8 8 8 8 10 11 11 11 12 13
7 6 4 5 5 5 5 5 5 5 5 5 5 6 6 5 5 5 3 4 11 11 11 11 11 11 10 9 8 6 6 6 5 5 6 7 7 8 9 10 11 11 12
9 8 5 4 4 5 6 5 5 4 5 3 6 5 5 6 5 5 4 3 4 8 10 11 12 11 10 9 8 6 5 5 4 4 4 5 6 7 8 9 10 11 11
7 7 5 5 4 5 4 4 4 4 3 4 3 4 5 5 6 6 5 5 5 4 8 11 12 12 10 8 8 7 6 6 5 3 4 4 5 6 7 8 8 9 10
6 7 4 4 5 4 4 4 2 4 3 3 3 3 4 5 6 5 6 6 6 5 4 8 11 9 10 11 10 8 8 7 6 4 4 3 3 3 5 6 8 9 11
6 5 4 5 4 4 4 3 3 2 3 3 2 3 3 2 3 4 5 3 4 5 5 6 5 6 11 12 12 11 11 10 7 7 6 4 3 1 3 5 7 10 11
6 6 4 4 4 5 6 5 3 4 2 3 3 1 2 4 4 3 3 4 5 5 6 5 4 4 5 13 14 14 14 12 10 10 10 8 6 4 2 3 6 8 11
5 5 5 5 5 4 5 6 5 3 3 4 4 2 2 3 3 5 4 5 6 4 5 7 6 6 5 5 7 16 16 15 14 13 12 11 11 9 7 6 6 8 10
4 6 7 6 6 5 4 5 5 7 4 3 3 4 1 5 1 2 6 5 5 4 4 5 7 8 6 5 8 10 14 13 16 16 15 15 14 13 11 9 9 9 10
6 7 7 8 6 6 7 7 6 4 4 5 1 1 2 3 3 2 2 3 4 5 5 4 5 6 6 5 9 12 13 14 14 18 18 18 18 17 15 13 11 11 10
7 8 8 7 7 5 7 8 6 7 6 4 4 3 1 1 1 1 3 2 2 2 4 6 6 4 4 4 4 7 12 12 14 18 21 21 21 19 18 16 14 13 12
6 8 9 8 7 7 7 8 9 9 8 5 4 4 5 4 4 3 2 3 3 2 3 2 3 3 4 4 7 13 15 15 17 20 23 23 23 22 21 20 17 17 15
5 7 8 7 7 9 7 5 7 9 8 7 7 6 3 4 3 2 2 2 3 1 2 1 1 2 2 1 4 10 12 13 16 20 21 22 22 24 24 23 21 20 18
7 6 6 8 9 7 6 5 4 5 6 5 7 5 4 4 3 3 3 4 2 2 1 4 1 2 3 4 5 9 6 12 13 15 18 21 22 24 24 25 24 22 19
4 5 6 7 6 7 7 9 5 5 5 5 6 6 3 3 3 3 2 3 4 2 3 2 2 2 4 4 7 5 6 11 14 16 19 21 24 25 26 25 24 22 20
7 8 6 5 8 9 8 8 5 4 7 3 4 6 3 3 3 2 1 1 1 3 3 3 4 5 5 4 7 6 7 13 14 18 21 23 25 28 28 23 19 19 22
7 11 12 11 12 9 8 8 7 6 7 6 5 6 5 5 3 2 2 2 2 3 4 3 4 3 3 5 7 6 6 6 7 16 21 24 25 25 22 20 20 24 21
11 12 8 9 8 8 9 9 9 8 9 9 8 7 5 4 4 4 3 4 3 3 3 5 3 2 4 4 5 6 8 7 6 11 18 22 24 24 25 28 26 25 22
12 7 10 9 7 9 9 8 9 9 9 8 8 6 7 6 5 3 2 3 1 2 2 1 3 1 2 2 4 4 5 5 5 14 16 20 22 25 27 25 28 25 24
9 8 9 9 9 9 9 9 9 9 8 8 8 7 6 5 4 3 2 3 3 3 2 1 2 3 2 3 3 4 9 4 7 7 13 14 14 17 22 25 25 19 17
9 10 10 8 8 8 7 10 10 10 10 8 6 6 5 9 10 7 4 3 2 1 2 2 2 2 3 3 4 4 8 10 9 5 9 9 10 10 11 19 17 20 19
10 10 10 9 9 5 12 12 11 9 10 8 7 9 8 11 10 11 9 6 4 2 1 1 1 3 5 5 3 5 6 8 9 4 3 10 5 10 7 4 12 14 17
11 9 8 9 8 8 13 13 12 8 8 7 7 8 7 6 6 5 6 5 4 3 2 2 3 4 5 5 7 9 9 9 11 9 8 14 9 11 9 8 14 14 16
10 9 9 8 9 8 13 13 14 10 8 8 7 6 6 5 5 4 4 3 1 2 2 3 5 7 8 9 11 11 11 11 10 9 8 10 8 11 7 7 16 18 18
8 8 8 9 10 9 15 16 13 9 8 7 6 6 6 5 6 4 2 2 4 3 5 12 13 17 17 17 14 9 8 8 11 11 4 7 9 9 2 4 5 16 10
9 8 9 8 12 10 14 15 11 6 7 5 5 6 8 4 3 1 3 3 3 3 5 6 7 9 10 9 16 8 9 10 9 11 5 3 8 2 4 1 1 2 3
Wind_Direction
139 131 127 132 104 128 105 99 105 123 106 116 129 135 136 135 152 141 136 149 146 146 145 143 142 138 138 128 124 120 110 95 83 74 65 59 45 45 41 40 33 25 19
154 140 145 123 138 124 108 129 133 114 116 122 125 136 144 147 158 154 167 173 165 162 158 163 163 163 162 157 148 140 126 110 92 77 69 52 43 42 32 30 22 16 9
152 152 137 126 186 119 124 108 102 111 121 124 131 145 149 167 165 171 173 187 183 172 173 180 186 186 185 182 180 171 152 143 131 97 79 52 36 39 29 16 8 0 355
143 132 142 171 152 120 134 129 141 131 138 152 144 167 167 177 177 181 181 181 185 187 196 194 198 198 194 189 189 191 184 174 169 143 104 54 45 32 20 3 351 348 343
141 143 164 186 126 128 161 154 154 139 163 174 192 189 200 187 188 179 192 187 192 186 192 214 196 185 181 195 207 210 208 198 192 175 138 88 65 31 5 348 341 337 339
165 137 165 160 157 165 158 169 149 145 160 164 190 213 218 289 280 208 199 183 200 193 198 198 184 185 189 204 214 220 218 209 204 203 195 180 165 155 342 337 334 330 327
172 166 186 156 174 178 185 164 131 170 172 141 113 354 280 244 242 230 206 216 209 210 194 200 198 193 201 209 215 222 225 228 226 223 221 209 199 197 225 293 307 308 311
148 142 176 198 187 166 158 167 162 153 192 175 157 134 227 297 244 221 222 202 209 198 212 214 206 201 204 213 212 224 227 232 235 230 229 208 210 206 212 239 272 290 298
186 200 207 190 191 166 178 179 179 182 176 190 199 154 152 226 82 181 215 211 191 200 229 221 215 214 205 209 220 228 230 229 236 238 234 216 217 217 219 231 247 269 281
212 213 214 209 177 181 197 196 190 189 149 182 84 107 43 125 195 289 279 228 182 208 219 239 229 225 226 221 227 227 224 222 225 234 231 223 222 224 226 230 240 253 269
217 214 202 206 205 188 199 189 179 199 198 167 172 165 141 59 56 152 232 246 273 248 217 194 208 210 212 212 228 241 249 237 224 225 227 228 227 229 232 235 239 249 260
223 222 217 211 204 197 194 200 206 201 200 179 168 167 166 166 179 189 211 219 200 251 242 198 215 224 222 217 231 232 234 234 231 226 224 228 230 232 234 238 241 248 255
233 234 226 221 213 210 199 176 190 200 185 191 184 188 170 177 141 170 181 192 216 261 303 314 253 257 278 214 239 236 246 244 240 230 227 227 229 234 237 240 241 245 250
235 231 222 225 226 200 175 176 203 206 187 186 171 163 168 176 164 166 168 150 205 240 344 244 318 250 275 265 258 257 246 243 234 234 236 234 233 234 236 238 240 243 248
228 237 217 210 199 202 198 197 199 186 170 165 177 177 162 169 168 174 143 150 149 207 233 249 254 279 262 256 254 245 239 243 237 231 232 234 238 239 238 237 238 244 251
217 220 204 216 214 209 184 181 189 166 158 146 144 151 147 129 127 130 170 152 161 191 236 210 250 240 260 267 267 258 245 246 242 237 234 236 239 238 239 243 242 250 252
192 216 213 202 215 194 188 179 159 159 147 142 140 158 158 128 144 162 187 192 228 184 245 261 232 273 279 280 290 282 263 245 242 241 240 240 243 245 246 235 232 236 243
198 206 223 196 196 185 182 176 154 163 162 161 154 142 134 133 155 188 192 212 213 221 218 262 258 277 243 278 273 289 287 290 263 255 248 244 242 240 236 233 235 229 231
217 199 192 195 184 187 169 161 157 162 159 153 148 151 151 160 181 197 175 265 289 336 20 352 283 299 280 295 309 298 287 279 281 282 268 257 249 244 244 241 236 231 238
174 171 191 187 177 168 164 151 155 151 141 140 139 145 163 176 168 191 111 63 55 35 27 350 296 270 258 304 303 303 304 293 297 296 289 285 273 255 249 249 246 246 245
164 162 159 160 152 155 153 150 148 140 136 137 141 119 98 102 95 94 113 105 80 61 16 359 304 296 296 322 303 301 298 304 300 275 283 284 282 274 262 252 238 237 237
151 151 157 151 146 147 138 133 134 134 133 143 126 113 105 95 93 92 89 83 79 69 325 228 258 295 279 278 281 289 290 301 309 257 301 295 291 288 272 264 238 220 215
144 143 145 134 125 125 135 130 122 125 117 112 115 124 111 98 96 102 83 59 38 346 259 225 265 262 280 273 287 292 281 277 285 292 294 290 292 278 267 251 231 222 245
135 134 126 127 124 125 125 112 98 96 94 97 107 106 108 108 82 85 70 47 324 303 293 263 235 250 247 277 287 289 287 283 279 272 245 275 287 272 262 230 233 228 234
119 118 118 122 116 115 112 111 107 107 103 94 89 90 94 93 65 40 72 8 349 336 326 315 309 308 303 297 296 298 283 276 285 286 239 259 282 279 255 245 242 228 212
121 114 100 95 105 109 118 117 114 113 110 104 85 79 80 82 48 40 83 44 338 314 317 320 311 305 302 301 302 300 298 277 272 284 254 246 284 220 278 238 298 214 142